Weather History for KPPQ - November, 2011

Change the Weather History Date:

Wednesday, November 23, 2011

  Actual Average (KUIN) Record (KUIN)
Temperature  
Mean Temperature 45 °F 39 °F  
Max Temperature 49 °F 47 °F 71 °F (1931)
Min Temperature 41 °F 30 °F 2 °F (1950)
Degree Days  
Heating Degree Days 20 26  
Month to date heating degree days 479  
Since 1 July heating degree days 903  
Cooling Degree Days 0 0  
Month to date cooling degree days 0  
Year to date cooling degree days 1093  
Moisture  
Dew Point 40 °F    
Average Humidity 84    
Maximum Humidity 95    
Minimum Humidity 70    
Precipitation  
Precipitation 0.00 in 0.10 in 0.71 in (2014)
Month to date precipitation 2.34  
Year to date precipitation 34.40  
Sea Level Pressure  
Sea Level Pressure 30.23 in    
Wind  
Wind Speed 5 mph (West)    
Max Wind Speed 9 mph    
Max Gust Speed -    
Visibility 4 miles    
Events      
T = Trace of Precipitation, MM = Missing Value Source: NWS Daily Summary

Daily Weather History Graph

Daily Weather History Graph

Search for Another Location

Airport or City:

Trip Planner

Search our weather history database for the weather conditions in past years. The results will help you decide how hot, cold, wet, or windy it might be!

Date:

Astronomy

Nov. 23, 2011 Rise Set
Actual Time 6:56 AM CST 4:42 PM CST
Civil Twilight 6:26 AM CST 5:11 PM CST
Nautical Twilight 5:53 AM CST 5:44 PM CST
Astronomical Twilight 5:21 AM CST 6:17 PM CST
Moon 5:00 AM CST (11/23) 3:24 PM CST (11/23)
Length of Visible Light 10h 45m
Length of Day
9h 46m
Waning Crescent, 3% of the Moon is Illuminated
Nov 23
Waning Crescent
Nov 25
New
Dec 2
First Quarter
Dec 10
Full
Dec 17
Last Quarter

Hourly Weather History & Observations

Time (CST) Temp. Windchill Dew Point Humidity Pressure Visibility Wind Dir Wind Speed Gust Speed Precip Events Conditions
12:15 AM 42.1 °F 40.2 °F 40.3 °F 93% 30.14 in 3.0 mi NW 3.5 mph - N/A   Overcast
12:35 AM 41.9 °F 39.0 °F 40.5 °F 95% 30.13 in 2.5 mi WNW 4.6 mph - N/A   Overcast
12:55 AM 41.9 °F 40.0 °F 40.5 °F 95% 30.14 in 2.5 mi West 3.5 mph - N/A   Overcast
1:15 AM 42.3 °F 38.6 °F 40.8 °F 95% 30.14 in 2.5 mi WNW 5.8 mph - N/A   Overcast
1:35 AM 42.3 °F 40.5 °F 40.6 °F 94% 30.15 in 2.5 mi WNW 3.5 mph - N/A   Overcast
1:55 AM 42.3 °F 39.4 °F 41.0 °F 95% 30.16 in 2.0 mi WNW 4.6 mph - N/A   Overcast
2:15 AM 42.8 °F 39.3 °F 41.0 °F 93% 30.16 in 2.0 mi West 5.8 mph - N/A   Overcast
2:35 AM 42.4 °F 38.8 °F 41.0 °F 95% 30.16 in 2.5 mi WNW 5.8 mph - N/A   Overcast
2:55 AM 42.8 °F 38.6 °F 41.0 °F 93% 30.16 in 3.0 mi West 6.9 mph - N/A   Overcast
3:15 AM 42.8 °F 40.1 °F 40.5 °F 91% 30.17 in 4.0 mi WNW 4.6 mph - N/A   Overcast
3:35 AM 42.8 °F 38.0 °F 40.5 °F 91% 30.17 in 4.0 mi West 8.1 mph - N/A   Overcast
3:55 AM 42.8 °F 38.6 °F 40.3 °F 91% 30.17 in 4.0 mi West 6.9 mph - N/A   Overcast
4:15 AM 42.8 °F 39.3 °F 40.3 °F 91% 30.18 in 4.0 mi WNW 5.8 mph - N/A   Overcast
4:35 AM 42.8 °F 40.1 °F 40.1 °F 90% 30.18 in 4.0 mi WNW 4.6 mph - N/A   Overcast
4:55 AM 42.8 °F 38.6 °F 39.2 °F 87% 30.18 in 4.0 mi WNW 6.9 mph - N/A   Mostly Cloudy
5:15 AM 42.4 °F 38.8 °F 38.7 °F 86% 30.19 in 4.0 mi West 5.8 mph - N/A   Overcast
5:35 AM 42.4 °F - 39.0 °F 88% 30.19 in 4.0 mi Calm Calm - N/A   Overcast
5:55 AM 42.4 °F 38.1 °F 38.7 °F 86% 30.20 in 4.0 mi WNW 6.9 mph - N/A   Overcast
6:15 AM 41.9 °F 40.0 °F 38.5 °F 88% 30.21 in 4.0 mi WNW 3.5 mph - N/A   Overcast
6:35 AM 41.7 °F 39.8 °F 38.3 °F 88% 30.21 in 4.0 mi WNW 3.5 mph - N/A   Overcast
6:55 AM 41.7 °F 37.3 °F 38.3 °F 88% 30.23 in 4.0 mi West 6.9 mph - N/A   Overcast
7:15 AM 41.5 °F 39.6 °F 38.7 °F 89% 30.25 in 2.5 mi West 3.5 mph - N/A   Overcast
7:35 AM 41.7 °F 39.8 °F 39.2 °F 91% 30.25 in 2.0 mi West 3.5 mph - N/A   Overcast
7:55 AM 41.9 °F 39.0 °F 39.0 °F 90% 30.25 in 2.5 mi West 4.6 mph - N/A   Overcast
8:15 AM 42.3 °F 38.6 °F 38.8 °F 88% 30.27 in 2.5 mi West 5.8 mph - N/A   Overcast
8:35 AM 42.8 °F 39.3 °F 39.2 °F 87% 30.27 in 2.5 mi WNW 5.8 mph - N/A   Overcast
8:55 AM 43.7 °F 40.3 °F 39.4 °F 85% 30.28 in 2.5 mi West 5.8 mph - N/A   Haze
9:15 AM 43.9 °F 39.3 °F 39.2 °F 84% 30.28 in 3.0 mi WNW 8.1 mph - N/A   Haze
9:35 AM 44.8 °F 40.4 °F 39.6 °F 82% 30.28 in 3.0 mi WNW 8.1 mph - N/A   Haze
9:55 AM 44.6 °F 42.2 °F 39.0 °F 81% 30.28 in 4.0 mi WNW 4.6 mph - N/A   Haze
10:15 AM 45.9 °F 42.9 °F 39.9 °F 80% 30.29 in 4.0 mi WNW 5.8 mph - N/A   Haze
10:35 AM 45.5 °F 42.5 °F 39.6 °F 80% 30.29 in 4.0 mi WSW 5.8 mph - N/A   Haze
10:55 AM 46.4 °F 45.2 °F 39.9 °F 78% 30.28 in 4.0 mi NW 3.5 mph - N/A   Haze
11:15 AM 46.0 °F 43.1 °F 39.7 °F 79% 30.28 in 4.0 mi West 5.8 mph - N/A   Haze
11:35 AM 47.1 °F - 39.7 °F 76% 30.27 in 4.0 mi SW 3.5 mph - N/A   Haze
11:55 AM 47.3 °F - 39.4 °F 74% 30.26 in 4.0 mi West 3.5 mph - N/A   Haze
12:15 PM 48.2 °F - 39.9 °F 73% 30.26 in 5.0 mi SW 4.6 mph - N/A   Haze
12:35 PM 48.7 °F - 40.3 °F 73% 30.25 in 5.0 mi SW 3.5 mph - N/A   Haze
12:55 PM 48.9 °F - 40.1 °F 72% 30.25 in 5.0 mi West 5.8 mph - N/A   Haze
1:15 PM 49.3 °F - 40.1 °F 71% 30.25 in 5.0 mi West 5.8 mph - N/A   Haze
1:35 PM 49.6 °F - 40.3 °F 70% 30.24 in 5.0 mi SW 5.8 mph - N/A   Haze
1:55 PM 49.8 °F - 40.6 °F 71% 30.25 in 5.0 mi SW 8.1 mph - N/A   Haze
2:15 PM 48.9 °F - 40.8 °F 74% 30.25 in 5.0 mi SW 6.9 mph - N/A   Haze
2:35 PM 49.1 °F - 41.2 °F 74% 30.25 in 5.0 mi SW 8.1 mph - N/A   Haze
2:55 PM 48.4 °F - 41.0 °F 76% 30.25 in 5.0 mi SW 6.9 mph - N/A   Haze
3:15 PM 48.0 °F - 40.8 °F 76% 30.25 in 5.0 mi SW 6.9 mph - N/A   Haze
3:35 PM 46.9 °F - 40.5 °F 78% 30.25 in 7.0 mi SSW 9.2 mph - N/A   Clear
3:55 PM 46.6 °F - 40.3 °F 79% 30.25 in 7.0 mi South 6.9 mph - N/A   Clear
4:15 PM 45.5 °F 41.8 °F 40.1 °F 81% 30.25 in 7.0 mi SW 6.9 mph - N/A   Clear
4:35 PM 44.6 °F 40.2 °F 40.1 °F 84% 30.25 in 7.0 mi SSW 8.1 mph - N/A   Scattered Clouds
4:55 PM 44.6 °F 40.2 °F 40.1 °F 84% 30.25 in 10.0 mi SSW 8.1 mph - N/A   Mostly Cloudy
5:15 PM 44.6 °F 40.2 °F 40.5 °F 85% 30.26 in 10.0 mi SSW 8.1 mph - N/A   Overcast
5:35 PM 44.6 °F 40.7 °F 41.0 °F 87% 30.26 in 10.0 mi SSW 6.9 mph - N/A   Overcast
5:55 PM 43.3 °F 38.1 °F 40.3 °F 89% 30.26 in 10.0 mi SSW 9.2 mph - N/A   Overcast
6:15 PM 43.0 °F - 40.5 °F 91% 30.26 in 7.0 mi Calm Calm - N/A   Overcast
6:35 PM 42.8 °F - 41.0 °F 93% 30.26 in 7.0 mi Calm Calm - N/A   Overcast
6:55 PM 43.0 °F 38.2 °F 40.5 °F 91% 30.27 in 5.0 mi SW 8.1 mph - N/A   Overcast
7:15 PM 42.8 °F 37.0 °F 40.3 °F 91% 30.27 in 5.0 mi SSW 10.4 mph - N/A   Overcast
7:35 PM 42.6 °F 37.2 °F 40.1 °F 91% 30.27 in 5.0 mi SSW 9.2 mph - N/A   Overcast
7:55 PM 42.8 °F 39.3 °F 40.3 °F 91% 30.27 in 5.0 mi South 5.8 mph - N/A   Overcast
8:15 PM 42.8 °F 38.6 °F 41.0 °F 93% 30.27 in 7.0 mi South 6.9 mph - N/A   Overcast
8:35 PM 43.0 °F 39.5 °F 40.3 °F 90% 30.27 in 7.0 mi South 5.8 mph - N/A   Overcast
8:55 PM 42.8 °F 38.0 °F 41.0 °F 93% 30.28 in 7.0 mi SSW 8.1 mph - N/A   Overcast
9:15 PM 43.2 °F 37.9 °F 40.5 °F 90% 30.27 in 7.0 mi South 9.2 mph - N/A   Overcast
9:35 PM 43.2 °F 38.4 °F 40.8 °F 91% 30.27 in 7.0 mi South 8.1 mph - N/A   Overcast
9:55 PM 43.3 °F 39.2 °F 41.0 °F 91% 30.27 in 7.0 mi SSW 6.9 mph - N/A   Overcast
10:15 PM 43.3 °F 37.7 °F 41.0 °F 91% 30.27 in 7.0 mi SSW 10.4 mph - N/A   Overcast
10:35 PM 44.6 °F 40.7 °F 41.0 °F 87% 30.27 in 7.0 mi South 6.9 mph - N/A   Overcast
10:55 PM 43.7 °F 38.6 °F 41.0 °F 90% 30.26 in 7.0 mi SSW 9.2 mph - N/A   Overcast
11:15 PM 43.7 °F 37.7 °F 41.0 °F 90% 30.27 in 7.0 mi SSW 11.5 mph - N/A   Overcast
11:35 PM 43.3 °F 37.7 °F 40.6 °F 90% 30.27 in 7.0 mi South 10.4 mph - N/A   Overcast
11:55 PM 43.3 °F 38.6 °F 40.8 °F 91% 30.27 in 7.0 mi South 8.1 mph - N/A   Overcast